Regional Weather Roundup
Issued by NWS

Home | Current Version | Previous Version | Graphics & Text | Print | Product List | Glossary On
Versions: 1 2 3 4 5 6 7 8 9 10 11 12 13 14 15 16 17 18 19 20 21 22 23 24 25 26 27 28 29 30 31 32 33 34 35 36 37 38 39 40 41 42 43 44 45 46 47 48 49 50
000
ASUS43 KMPX 181810
RWRMN
WEATHER ROUNDUP FOR MINNESOTA
NATIONAL WEATHER SERVICE TWIN CITIES/CHANHASSEN MN
100 PM CDT FRI APR 18 2014


NOTE: "FAIR" INDICATES FEW OR NO CLOUDS BELOW 12,000 FEET WITH NO
SIGNIFICANT WEATHER AND/OR OBSTRUCTIONS TO VISIBILITY. N/A MEANS
CURRENT SKY AND/OR WEATHER CONDITIONS ARE NOT AVAILABLE.

MNZ060>063-068>070-181900-
   Twin Cities Metro

CITY           SKY/WX    TMP DP  RH WIND       PRES   REMARKS
TWIN CITIES    MOSUNNY   48  29  47 SE13      30.36F
6HR MIN TEMP:  29; 6HR MAX TEMP:  48;

ST PAUL        SUNNY     47  27  45 SE8       30.37F
CRYSTAL        MOSUNNY   44  26  49 S7        30.35F
BLAINE         SUNNY     45  28  53 SE6       30.36F
EDEN PRAIRIE   PTSUNNY   48  28  46 E13       30.34F
6HR MIN TEMP:  29; 6HR MAX TEMP:  49;

LAKEVILLE      MOSUNNY   46  28  49 SE12      30.35F
SOUTH ST PAUL  SUNNY     48  27  44 SE7       30.36F
LAKE ELMO      FAIR      46  30  53 E7        30.37F
$$
MNZ001>005-007-008-013>017-022>024-027-028-181900-
   Northwest Minnesota

CITY           SKY/WX    TMP DP  RH WIND       PRES   REMARKS
BEMIDJI        SUNNY     46  19  35 SE18      30.28F
HALLOCK        CLOUDY    46  21  36 SE16      30.22F
ROSEAU         SUNNY     46  16  29 SE13G21   30.28F
WARROAD        SUNNY     39  27  60 E10       30.31F
THIEF RVR FALL SUNNY     46  21  36 SE18G25   30.24F
CROOKSTON      MOSUNNY   48  21  34 SE22      30.22F
FOSSTON        MOSUNNY   48  25  40 E13G20    30.23F
DETROIT LAKES  MOSUNNY   43  25  49 SE18G24   30.24F
MOORHEAD       PTSUNNY   46  25  42 SE20G25   30.21F
PARK RAPIDS    CLOUDY    43  19  38 SE13      30.27F
$$
MNZ006-009>011-018-025>026-181900-
   North Central Minnesota

CITY           SKY/WX    TMP DP  RH WIND       PRES   REMARKS
BAUDETTE       SUNNY     43  17  35 VRB6G16   30.32F
FLAG ISLAND    SUNNY     36  25  64 S3        30.33F
INTL FALLS     SUNNY     42  14  32 E12       30.35F
6HR MIN TEMP:  18; 6HR MAX TEMP:  42;

WASKISH        SUNNY     48  18  29 SE9       30.31F
BIG FORK       SUNNY     45  14  29 SE8       30.34F
LONGVILLE      CLOUDY    46  18  31 SE10      30.30F
GRAND RAPIDS   SUNNY     43  16  33 SE6       30.33F
CRANE LAKE     SUNNY     43  16  33 NE6       30.40S
ORR            SUNNY     43   9  24 S5        30.35S
COOK           SUNNY     39  10  30 E5        30.37S
$$
MNZ012-019>021-037-181900-
   Northeast Minnesota

CITY           SKY/WX    TMP DP  RH WIND       PRES   REMARKS
DULUTH         MOSUNNY   36  18  48 SE9       30.37S
6HR MIN TEMP:  21; 6HR MAX TEMP:  38;

ELY            SUNNY     37  16  41 CALM      30.37F
HIBBING        SUNNY     44  13  28 VRB3      30.35F
EVELETH        SUNNY     43  12  28 N6        30.37S
DULUTH HARBOR  SUNNY     34  28  80 CALM      30.43S
TWO HARBORS    SUNNY     37  23  56 E9        30.38F
SILVER BAY     SUNNY     37  27  65 SE10      30.38F
GRAND MARAIS     N/A     34  25  69 SW6       30.43R WCI  29
G MARAIS ARPRT PTSUNNY   36  19  51 E5        30.36F
$$
MNZ029>031-032-039>041-046>048-054>057-064-181900-
   West Central Minnesota

CITY           SKY/WX    TMP DP  RH WIND       PRES   REMARKS
FERGUS FALLS   PTSUNNY   45  21  39 SE18G25   30.20F
WHEATON        PTSUNNY   45  32  61 SE29      30.21F
MORRIS         CLOUDY    43  30  61 SE25G31   30.22F
ALEXANDRIA     CLOUDY    40  28  62 SE14G26   30.28F
ELBOW LAKE     CLOUDY    43  25  49 SE22      30.23F
WADENA         PTSUNNY   43  25  49 SE18G24   30.28S
GLENWOOD       PTSUNNY   41  28  60 E17       30.28S
APPLETON       CLOUDY    43  30  61 SE24G30   30.22F
BENSON         CLOUDY    43  30  61 S21G26    30.26F
ORTONVILLE     PTSUNNY   39  30  70 SE21G26   30.19F
MADISON        PTSUNNY   46  37  71 SE22G31   30.21F
WILLMAR        FAIR      39  32  75 SE18      30.30F
$$
MNZ033>034-036-042>043-049>051-058-059-181900-
   Central Minnesota

CITY           SKY/WX    TMP DP  RH WIND       PRES   REMARKS
ST CLOUD       PTSUNNY   40  25  55 S14       30.34F
6HR MIN TEMP:  26; 6HR MAX TEMP:  40;

SAUK CENTRE    CLOUDY    40  28  62 SE15G21   30.30F
PAYNESVILLE    CLOUDY    40  28  62 SE14      30.31F
AITKIN         MOSUNNY   46  21  36 SE6       30.33S
PINE RIVER     MOSUNNY   43  25  49 SE10      30.34S
BRAINERD       CLOUDY    47  22  37 SE8       30.33F
STAPLES        PTSUNNY   39  21  48 SE13      30.30S
LONG PRAIRIE   FAIR      39  27  60 SE12G18   30.31F
LITTLE FALLS   MOSUNNY   39  27  60 SE9G16    30.33S
LITCHFIELD     MOSUNNY   41  32  70 SE13      30.32F
BUFFALO        PTSUNNY   45  29  53 E12       30.35F
MAPLE LAKE     PTSUNNY   44  30  57 SE8       30.34F
$$
MNZ037-044-045-052-053-181900-
   East Central Minnesota

CITY           SKY/WX    TMP DP  RH WIND       PRES   REMARKS
PRINCETON      MOSUNNY   45  27  49 SE9       30.36S
MORA           PTSUNNY   43  25  49 SE6       30.39S
CAMBRIDGE      MOSUNNY   45  28  53 SE7       30.35S
RUSH CITY      CLOUDY    43  24  47 SE6       30.38S
MOOSE LAKE     SUNNY     45  19  36 E5        30.35S
HINCKLEY       CLOUDY    43  27  52 SE6       30.36S
CLOQUET        SUNNY     39  14  35 E6        30.37S
MCGREGOR       SUNNY     45  21  39 E3G10     30.35F
$$
MNZ071>073-080-081-089-090-097-098-181900-
   Southwest Minnesota

CITY           SKY/WX    TMP DP  RH WIND       PRES   REMARKS
MONTEVIDEO     CLOUDY    39  34  81 S17G24    30.25F
GRANITE FALLS  CLOUDY    40  32  72 E16G23    30.26F
CANBY          PTSUNNY   43  36  77 SE20      30.19F
MARSHALL       PTSUNNY   48  36  61 SE23      30.20F
REDWOOD FALLS  CLOUDY    45  33  63 SE17G25   30.27F
OLIVIA         CLOUDY    39  32  75 SE12      30.28F
PIPESTONE      SUNNY     54  36  50 S22G30    30.14F
WINDOM         PTSUNNY   50  34  53 SE18      30.26F
WORTHINGTON    SUNNY     54  30  40 SE20G28   30.23F
JACKSON        MOSUNNY   52  32  46 SE14G21   30.26F
TRACY          PTSUNNY   50  38  62 SE22      30.23F
SLAYTON        SUNNY     50  38  63 SE22G29   30.21F
$$
MNZ065>067-074>077-082>085-091>093-181900-
   South Central Minnesota

CITY           SKY/WX    TMP DP  RH WIND       PRES   REMARKS
MANKATO        MOSUNNY   46  30  53 SE16      30.32F
NEW ULM        CLOUDY    46  32  57 SE13      30.30S
ST JAMES       CLOUDY    48  34  57 E15G22    30.30F
FAIRMONT       CLOUDY    48  34  57 SE15      30.30F
GLENCOE        PTSUNNY   48  29  48 SE13G18   30.32F
FARIBAULT      MOSUNNY   48  28  46 E12       30.34F
OWATONNA       MOSUNNY   48  34  57 SE8       30.33F
WASECA         MOSUNNY   48  34  57 SE10G16   30.35F
ALBERT LEA     SUNNY     48  30  49 SE14      30.32F
$$
MNZ078>079-086>088-094>096-181900-
   Southeast Minnesota

CITY           SKY/WX    TMP DP  RH WIND       PRES   REMARKS
ROCHESTER      SUNNY     46  28  49 S6        30.35S
6HR MIN TEMP:  29; 6HR MAX TEMP:  47;

RED WING       SUNNY     46  27  46 S7        30.37S
STANTON        MOSUNNY   47  30  51 S9        30.35F
DODGE CENTER   SUNNY     48  32  53 SE8       30.35S
WINONA         MOSUNNY   48  27  43 S5        30.38R
AUSTIN           N/A    N/A N/A N/A SE6       30.34F
PRESTON        SUNNY     47  27  44 SE7       30.36R
$$
ABBREVIATIONS USED IN REMARKS
   TC - TEMPERATURES IN CELSIUS
  WCI - WIND CHILL INDEX
   HX - HEAT INDEX
  VSB - VISIBILITY
$$


USA.gov is the U.S. government's official web portal to all federal, state and local government web resources and services.